Year,Month,Day,Hour,Minute,Value (Times are PST for temperature in C)
2013,04,01,00,00,6.80
2013,04,01,00,01,6.70
2013,04,01,00,02,6.70
2013,04,01,00,03,6.70
2013,04,01,00,04,6.60
2013,04,01,00,05,6.60
2013,04,01,00,06,6.60
2013,04,01,00,07,6.60
2013,04,01,00,08,6.50
2013,04,01,00,09,6.40
2013,04,01,00,10,6.40
2013,04,01,00,11,6.40
2013,04,01,00,12,6.40
2013,04,01,00,13,6.40
2013,04,01,00,14,6.40
2013,04,01,00,15,6.40
2013,04,01,00,16,6.40
2013,04,01,00,17,6.30
2013,04,01,00,18,6.30
2013,04,01,00,19,6.30
2013,04,01,00,20,6.30
2013,04,01,00,21,6.30
2013,04,01,00,22,6.30
2013,04,01,00,23,6.30
2013,04,01,00,24,6.30
2013,04,01,00,25,6.30
2013,04,01,00,26,6.30
2013,04,01,00,27,6.30
2013,04,01,00,28,6.30
2013,04,01,00,29,6.30
2013,04,01,00,30,6.30
2013,04,01,00,31,6.30
2013,04,01,00,32,6.30
2013,04,01,00,33,6.30
2013,04,01,00,34,6.30
2013,04,01,00,35,6.30
2013,04,01,00,36,6.30
2013,04,01,00,37,6.30
2013,04,01,00,38,6.30
2013,04,01,00,39,6.30
2013,04,01,00,40,6.30
2013,04,01,00,41,6.20
2013,04,01,00,42,6.20
2013,04,01,00,43,6.20
2013,04,01,00,44,6.20
2013,04,01,00,45,6.20
2013,04,01,00,46,6.20
2013,04,01,00,47,6.20
2013,04,01,00,48,6.20
2013,04,01,00,49,6.20
2013,04,01,00,50,6.20
2013,04,01,00,51,6.20
2013,04,01,00,52,6.20
2013,04,01,00,53,6.20
2013,04,01,00,54,6.20
2013,04,01,00,55,6.20
2013,04,01,00,56,6.20
2013,04,01,00,57,6.20
2013,04,01,00,58,6.20
2013,04,01,00,59,6.20
2013,04,01,01,00,6.20
2013,04,01,01,01,6.10
2013,04,01,01,02,6.10
2013,04,01,01,03,6.10
2013,04,01,01,04,6.10
2013,04,01,01,05,6.10
2013,04,01,01,06,6.10
2013,04,01,01,07,6.10
2013,04,01,01,08,6.10
2013,04,01,01,09,6.00
2013,04,01,01,10,6.00
2013,04,01,01,11,6.00
2013,04,01,01,12,6.00
2013,04,01,01,13,6.00
2013,04,01,01,14,6.00
2013,04,01,01,15,5.90
2013,04,01,01,16,5.90
2013,04,01,01,17,5.90
2013,04,01,01,18,5.90
2013,04,01,01,19,5.90
2013,04,01,01,20,5.90
2013,04,01,01,21,5.90
2013,04,01,01,22,6.00
2013,04,01,01,23,6.00
2013,04,01,01,24,6.00
2013,04,01,01,25,6.00
2013,04,01,01,26,6.10
2013,04,01,01,27,6.10
2013,04,01,01,28,6.10
2013,04,01,01,29,6.10
2013,04,01,01,30,6.10
2013,04,01,01,31,6.10
2013,04,01,01,32,6.10
2013,04,01,01,33,6.10
2013,04,01,01,34,6.10
2013,04,01,01,35,6.10
2013,04,01,01,36,6.00
2013,04,01,01,37,6.00
2013,04,01,01,38,6.00
2013,04,01,01,39,6.00
2013,04,01,01,40,6.00
2013,04,01,01,41,6.00
2013,04,01,01,42,6.00
2013,04,01,01,43,6.00
2013,04,01,01,44,6.00
2013,04,01,01,45,6.00
2013,04,01,01,46,5.90
2013,04,01,01,47,5.90
2013,04,01,01,48,5.90
2013,04,01,01,49,5.90
2013,04,01,01,50,5.90
2013,04,01,01,51,5.90
2013,04,01,01,52,5.80
2013,04,01,01,53,5.80
2013,04,01,01,54,5.80
2013,04,01,01,55,5.70
2013,04,01,01,56,5.70
2013,04,01,01,57,5.70
2013,04,01,01,58,5.70
2013,04,01,01,59,5.70
2013,04,01,02,00,5.70
2013,04,01,02,01,5.70
2013,04,01,02,02,5.60
2013,04,01,02,03,5.60
2013,04,01,02,04,5.60
2013,04,01,02,05,5.60
2013,04,01,02,06,5.60
2013,04,01,02,07,5.60
2013,04,01,02,08,5.60
2013,04,01,02,09,5.60
2013,04,01,02,10,5.60
2013,04,01,02,11,5.60
2013,04,01,02,12,5.60
2013,04,01,02,13,5.50
2013,04,01,02,14,5.50
2013,04,01,02,15,5.50
2013,04,01,02,16,5.50
2013,04,01,02,17,5.50
2013,04,01,02,18,5.50
2013,04,01,02,19,5.50
2013,04,01,02,20,5.50
2013,04,01,02,21,5.60
2013,04,01,02,22,5.60
2013,04,01,02,23,5.60
2013,04,01,02,24,5.50
2013,04,01,02,25,5.50
2013,04,01,02,26,5.50
2013,04,01,02,27,5.50
2013,04,01,02,28,5.50
2013,04,01,02,29,5.50
2013,04,01,02,30,5.40
2013,04,01,02,31,5.40
2013,04,01,02,32,5.40
2013,04,01,02,33,5.30
2013,04,01,02,34,5.30
2013,04,01,02,35,5.30
2013,04,01,02,36,5.30
2013,04,01,02,37,5.30
2013,04,01,02,38,5.30
2013,04,01,02,39,5.30
2013,04,01,02,40,5.30
2013,04,01,02,41,5.20
2013,04,01,02,42,5.20
2013,04,01,02,43,5.20
2013,04,01,02,44,5.20
2013,04,01,02,45,5.10
2013,04,01,02,46,5.10
2013,04,01,02,47,5.10
2013,04,01,02,48,5.10
2013,04,01,02,49,5.10
2013,04,01,02,50,5.10
2013,04,01,02,51,5.10
2013,04,01,02,52,5.10
2013,04,01,02,53,5.10
2013,04,01,02,54,5.10
2013,04,01,02,55,5.10
2013,04,01,02,56,5.10
2013,04,01,02,57,5.00
2013,04,01,02,58,4.90
2013,04,01,02,59,4.90
2013,04,01,03,00,4.90
2013,04,01,03,01,4.90
2013,04,01,03,02,4.90
2013,04,01,03,03,4.90
2013,04,01,03,04,4.90
2013,04,01,03,05,4.90
2013,04,01,03,06,4.90
2013,04,01,03,07,4.90
2013,04,01,03,08,4.90
2013,04,01,03,09,4.90
2013,04,01,03,10,4.90
2013,04,01,03,11,4.90
2013,04,01,03,12,4.90
2013,04,01,03,13,4.90
2013,04,01,03,14,4.90
2013,04,01,03,15,4.90
2013,04,01,03,16,4.90
2013,04,01,03,17,4.90
2013,04,01,03,18,4.90
2013,04,01,03,19,4.90
2013,04,01,03,20,4.90
2013,04,01,03,21,4.90
2013,04,01,03,22,4.90
2013,04,01,03,23,4.90
2013,04,01,03,24,4.90
2013,04,01,03,25,4.90
2013,04,01,03,26,4.90
2013,04,01,03,27,4.90
2013,04,01,03,28,4.90
2013,04,01,03,29,4.90
2013,04,01,03,30,4.90
2013,04,01,03,31,4.90
2013,04,01,03,32,4.80
2013,04,01,03,33,4.80
2013,04,01,03,34,4.80
2013,04,01,03,35,4.80
2013,04,01,03,36,4.80
2013,04,01,03,37,4.80
2013,04,01,03,38,4.70
2013,04,01,03,39,4.70
2013,04,01,03,40,4.70
2013,04,01,03,41,4.70
2013,04,01,03,42,4.60
2013,04,01,03,43,4.60
2013,04,01,03,44,4.60
2013,04,01,03,45,4.60
2013,04,01,03,46,4.60
2013,04,01,03,47,4.60
2013,04,01,03,48,4.60
2013,04,01,03,49,4.60
2013,04,01,03,50,4.60
2013,04,01,03,51,4.60
2013,04,01,03,52,4.60
2013,04,01,03,53,4.60
2013,04,01,03,54,4.60
2013,04,01,03,55,4.60
2013,04,01,03,56,4.60
2013,04,01,03,57,4.60
2013,04,01,03,58,4.60
2013,04,01,03,59,4.60
2013,04,01,04,00,4.60
2013,04,01,04,01,4.70
2013,04,01,04,02,4.60
2013,04,01,04,03,4.60
2013,04,01,04,04,4.60
2013,04,01,04,05,4.60
2013,04,01,04,06,4.60
2013,04,01,04,07,4.60
2013,04,01,04,08,4.60
2013,04,01,04,09,4.60
2013,04,01,04,10,4.60
2013,04,01,04,11,4.60
2013,04,01,04,12,4.60
2013,04,01,04,13,4.60
2013,04,01,04,14,4.60
2013,04,01,04,15,4.60
2013,04,01,04,16,4.60
2013,04,01,04,17,4.60
2013,04,01,04,18,4.60
2013,04,01,04,19,4.60
2013,04,01,04,20,4.60
2013,04,01,04,21,4.60
2013,04,01,04,22,4.60
2013,04,01,04,23,4.60
2013,04,01,04,24,4.60
2013,04,01,04,25,4.60
2013,04,01,04,26,4.60
2013,04,01,04,27,4.60
2013,04,01,04,28,4.50
2013,04,01,04,29,4.50
2013,04,01,04,30,4.50
2013,04,01,04,31,4.50
2013,04,01,04,32,4.50
2013,04,01,04,33,4.40
2013,04,01,04,34,4.40
2013,04,01,04,35,4.40
2013,04,01,04,36,4.40
2013,04,01,04,37,4.40
2013,04,01,04,38,4.40
2013,04,01,04,39,4.40
2013,04,01,04,40,4.40
2013,04,01,04,41,4.30
2013,04,01,04,42,4.30
2013,04,01,04,43,4.30
2013,04,01,04,44,4.30
2013,04,01,04,45,4.20
2013,04,01,04,46,4.20
2013,04,01,04,47,4.20
2013,04,01,04,48,4.20
2013,04,01,04,49,4.20
2013,04,01,04,50,4.20
2013,04,01,04,51,4.10
2013,04,01,04,52,4.10
2013,04,01,04,53,4.10
2013,04,01,04,54,4.20
2013,04,01,04,55,4.20
2013,04,01,04,56,4.20
2013,04,01,04,57,4.20
2013,04,01,04,58,4.20
2013,04,01,04,59,4.20
2013,04,01,05,00,4.20
2013,04,01,05,01,4.20
2013,04,01,05,02,4.20
2013,04,01,05,03,4.20
2013,04,01,05,04,4.20
2013,04,01,05,05,4.20
2013,04,01,05,06,4.20
2013,04,01,05,07,4.20
2013,04,01,05,08,4.20
2013,04,01,05,09,4.20
2013,04,01,05,10,4.10
2013,04,01,05,11,4.10
2013,04,01,05,12,4.10
2013,04,01,05,13,4.10
2013,04,01,05,14,4.00
2013,04,01,05,15,4.00
2013,04,01,05,16,4.00
2013,04,01,05,17,4.00
2013,04,01,05,18,4.00
2013,04,01,05,19,4.00
2013,04,01,05,20,4.00
2013,04,01,05,21,3.90
2013,04,01,05,22,3.90
2013,04,01,05,23,3.90
2013,04,01,05,24,3.90
2013,04,01,05,25,4.00
2013,04,01,05,26,4.00
2013,04,01,05,27,4.00
2013,04,01,05,28,4.00
2013,04,01,05,29,4.00
2013,04,01,05,30,4.00
2013,04,01,05,31,4.00
2013,04,01,05,32,4.00
2013,04,01,05,33,4.00
2013,04,01,05,34,4.00
2013,04,01,05,35,4.00
2013,04,01,05,36,4.00
2013,04,01,05,37,4.00
2013,04,01,05,38,4.00
2013,04,01,05,39,3.90
2013,04,01,05,40,3.90
2013,04,01,05,41,3.90
2013,04,01,05,42,3.90
2013,04,01,05,43,3.80
2013,04,01,05,44,3.80
2013,04,01,05,45,3.80
2013,04,01,05,46,3.80
2013,04,01,05,47,3.80
2013,04,01,05,48,3.80
2013,04,01,05,49,3.80
2013,04,01,05,50,3.90
2013,04,01,05,51,3.90
2013,04,01,05,52,3.90
2013,04,01,05,53,3.90
2013,04,01,05,54,3.90
2013,04,01,05,55,3.90
2013,04,01,05,56,3.90
2013,04,01,05,57,3.90
2013,04,01,05,58,3.90
2013,04,01,05,59,3.90
2013,04,01,06,00,3.90
2013,04,01,06,01,3.90
2013,04,01,06,02,3.80
2013,04,01,06,03,3.80
2013,04,01,06,04,3.80
2013,04,01,06,05,3.80
2013,04,01,06,06,3.80
2013,04,01,06,07,3.80
2013,04,01,06,08,3.80
2013,04,01,06,09,3.80
2013,04,01,06,10,3.80
2013,04,01,06,11,3.80
2013,04,01,06,12,3.70
2013,04,01,06,13,3.70
2013,04,01,06,14,3.70
2013,04,01,06,15,3.70
2013,04,01,06,16,3.70
2013,04,01,06,17,3.70
2013,04,01,06,18,3.70
2013,04,01,06,19,3.70
2013,04,01,06,20,3.60
2013,04,01,06,21,3.60
2013,04,01,06,22,3.60
2013,04,01,06,23,3.60
2013,04,01,06,24,3.60
2013,04,01,06,25,3.60
2013,04,01,06,26,3.60
2013,04,01,06,27,3.60
2013,04,01,06,28,3.60
2013,04,01,06,29,3.60
2013,04,01,06,30,3.60
2013,04,01,06,31,3.60
2013,04,01,06,32,3.60
2013,04,01,06,33,3.60
2013,04,01,06,34,3.60
2013,04,01,06,35,3.60
2013,04,01,06,36,3.60
2013,04,01,06,37,3.60
2013,04,01,06,38,3.60
2013,04,01,06,39,3.60
2013,04,01,06,40,3.60
2013,04,01,06,41,3.50
2013,04,01,06,42,3.50
2013,04,01,06,43,3.50
2013,04,01,06,44,3.50
2013,04,01,06,45,3.50
2013,04,01,06,46,3.50
2013,04,01,06,47,3.50
2013,04,01,06,48,3.50
2013,04,01,06,49,3.40
2013,04,01,06,50,3.40
2013,04,01,06,51,3.40
2013,04,01,06,52,3.40
2013,04,01,06,53,3.40
2013,04,01,06,54,3.40
2013,04,01,06,55,3.40
2013,04,01,06,56,3.40
2013,04,01,06,57,3.40
2013,04,01,06,58,3.40
2013,04,01,06,59,3.40
2013,04,01,07,00,3.40
2013,04,01,07,01,3.40
2013,04,01,07,02,3.40
2013,04,01,07,03,3.40
2013,04,01,07,04,3.40
2013,04,01,07,05,3.40
2013,04,01,07,06,3.40
2013,04,01,07,07,3.30
2013,04,01,07,08,3.40
2013,04,01,07,09,3.40
2013,04,01,07,10,3.40
2013,04,01,07,11,3.40
2013,04,01,07,12,3.40
2013,04,01,07,13,3.40
2013,04,01,07,14,3.40
2013,04,01,07,15,3.40
2013,04,01,07,16,3.40
2013,04,01,07,17,3.40
2013,04,01,07,18,3.40
2013,04,01,07,19,3.40
2013,04,01,07,20,3.40
2013,04,01,07,21,3.40
2013,04,01,07,22,3.40
2013,04,01,07,23,3.50
2013,04,01,07,24,3.50
2013,04,01,07,25,3.50
2013,04,01,07,26,3.50
2013,04,01,07,27,3.50
2013,04,01,07,28,3.50
2013,04,01,07,29,3.60
2013,04,01,07,30,3.60
2013,04,01,07,31,3.60
2013,04,01,07,32,3.60
2013,04,01,07,33,3.60
2013,04,01,07,34,3.60
2013,04,01,07,35,3.60
2013,04,01,07,36,3.70
2013,04,01,07,37,3.70
2013,04,01,07,38,3.70
2013,04,01,07,39,3.70
2013,04,01,07,40,3.70
2013,04,01,07,41,3.70
2013,04,01,07,42,3.70
2013,04,01,07,43,3.80
2013,04,01,07,44,3.80
2013,04,01,07,45,3.80
2013,04,01,07,46,3.90
2013,04,01,07,47,4.00
2013,04,01,07,48,4.00
2013,04,01,07,49,4.00
2013,04,01,07,50,4.10
2013,04,01,07,51,4.10
2013,04,01,07,52,4.20
2013,04,01,07,53,4.20
2013,04,01,07,54,4.30
2013,04,01,07,55,4.40
2013,04,01,07,56,4.40
2013,04,01,07,57,4.40
2013,04,01,07,58,4.50
2013,04,01,07,59,4.50
2013,04,01,08,00,4.40
2013,04,01,08,01,4.40
2013,04,01,08,02,4.50
2013,04,01,08,03,4.50
2013,04,01,08,04,4.50
2013,04,01,08,05,4.60
2013,04,01,08,06,4.60
2013,04,01,08,07,4.60
2013,04,01,08,08,4.60
2013,04,01,08,09,4.60
2013,04,01,08,10,4.60
2013,04,01,08,11,4.70
2013,04,01,08,12,4.70
2013,04,01,08,13,4.80
2013,04,01,08,14,4.80
2013,04,01,08,15,4.90
2013,04,01,08,16,4.90
2013,04,01,08,17,5.00
2013,04,01,08,18,5.10
2013,04,01,08,19,5.20
2013,04,01,08,20,5.30
2013,04,01,08,21,5.30
2013,04,01,08,22,5.50
2013,04,01,08,23,5.50
2013,04,01,08,24,5.60
2013,04,01,08,25,5.70
2013,04,01,08,26,5.70
2013,04,01,08,27,5.80
2013,04,01,08,28,5.90
2013,04,01,08,29,6.00
2013,04,01,08,30,6.10
2013,04,01,08,31,6.20
2013,04,01,08,32,6.20
2013,04,01,08,33,6.30
2013,04,01,08,34,6.40
2013,04,01,08,35,6.50
2013,04,01,08,36,6.60
2013,04,01,08,37,6.70
2013,04,01,08,38,6.80
2013,04,01,08,39,6.80
2013,04,01,08,40,6.90
2013,04,01,08,41,7.00
2013,04,01,08,42,7.10
2013,04,01,08,43,7.20
2013,04,01,08,44,7.30
2013,04,01,08,45,7.30
2013,04,01,08,46,7.50
2013,04,01,08,47,7.50
2013,04,01,08,48,7.60
2013,04,01,08,49,7.80
2013,04,01,08,50,7.80
2013,04,01,08,51,7.90
2013,04,01,08,52,8.00
2013,04,01,08,53,8.00
2013,04,01,08,54,8.20
2013,04,01,08,55,8.20
2013,04,01,08,56,8.30
2013,04,01,08,57,8.40
2013,04,01,08,58,8.40
2013,04,01,08,59,8.50
2013,04,01,09,00,8.60
2013,04,01,09,01,8.70
2013,04,01,09,02,8.70
2013,04,01,09,03,8.70
2013,04,01,09,04,8.70
2013,04,01,09,05,8.80
2013,04,01,09,06,8.80
2013,04,01,09,07,8.90
2013,04,01,09,08,8.90
2013,04,01,09,09,9.00
2013,04,01,09,10,9.10
2013,04,01,09,11,9.20
2013,04,01,09,12,9.20
2013,04,01,09,13,9.30
2013,04,01,09,14,9.40
2013,04,01,09,15,9.40
2013,04,01,09,16,9.50
2013,04,01,09,17,9.50
2013,04,01,09,18,9.60
2013,04,01,09,19,9.60
2013,04,01,09,20,9.60
2013,04,01,09,21,9.60
2013,04,01,09,22,9.70
2013,04,01,09,23,9.80
2013,04,01,09,24,9.90
2013,04,01,09,25,9.90
2013,04,01,09,26,9.90
2013,04,01,09,27,9.90
2013,04,01,09,28,9.90
2013,04,01,09,29,9.90
2013,04,01,09,30,9.90
2013,04,01,09,31,9.90
2013,04,01,09,32,10.00
2013,04,01,09,33,10.10
2013,04,01,09,34,10.10
2013,04,01,09,35,10.20
2013,04,01,09,36,10.30
2013,04,01,09,37,10.40
2013,04,01,09,38,10.50
2013,04,01,09,39,10.60
2013,04,01,09,40,10.70
2013,04,01,09,41,10.80
2013,04,01,09,42,10.80
2013,04,01,09,43,10.80
2013,04,01,09,44,10.80
2013,04,01,09,45,10.90
2013,04,01,09,46,10.90
2013,04,01,09,47,10.90
2013,04,01,09,48,11.10
2013,04,01,09,49,11.20
2013,04,01,09,50,11.20
2013,04,01,09,51,11.40
2013,04,01,09,52,11.40
2013,04,01,09,53,11.60
2013,04,01,09,54,11.60
2013,04,01,09,55,11.60
2013,04,01,09,56,11.60
2013,04,01,09,57,11.60
2013,04,01,09,58,11.60
2013,04,01,09,59,11.60
2013,04,01,10,00,11.60
2013,04,01,10,01,11.60
2013,04,01,10,02,11.60
2013,04,01,10,03,11.70
2013,04,01,10,04,11.70
2013,04,01,10,05,11.80
2013,04,01,10,06,11.80
2013,04,01,10,07,11.80
2013,04,01,10,08,11.80
2013,04,01,10,09,11.90
2013,04,01,10,10,11.90
2013,04,01,10,11,11.90
2013,04,01,10,12,11.90
2013,04,01,10,13,12.00
2013,04,01,10,14,12.00
2013,04,01,10,15,11.90
2013,04,01,10,16,12.00
2013,04,01,10,17,12.00
2013,04,01,10,18,12.10
2013,04,01,10,19,12.10
2013,04,01,10,20,12.20
2013,04,01,10,21,12.30
2013,04,01,10,22,12.40
2013,04,01,10,23,12.40
2013,04,01,10,24,12.40
2013,04,01,10,25,12.30
2013,04,01,10,26,12.10
2013,04,01,10,27,11.90
2013,04,01,10,28,11.80
2013,04,01,10,29,11.80
2013,04,01,10,30,11.80
2013,04,01,10,31,11.80
2013,04,01,10,32,11.80
2013,04,01,10,33,11.90
2013,04,01,10,34,11.90
2013,04,01,10,35,11.80
2013,04,01,10,36,11.70
2013,04,01,10,37,11.60
2013,04,01,10,38,11.70
2013,04,01,10,39,11.80
2013,04,01,10,40,11.80
2013,04,01,10,41,11.70
2013,04,01,10,42,11.70
2013,04,01,10,43,11.70
2013,04,01,10,44,11.70
2013,04,01,10,45,11.80
2013,04,01,10,46,11.80
2013,04,01,10,47,11.80
2013,04,01,10,48,11.90
2013,04,01,10,49,12.00
2013,04,01,10,50,12.00
2013,04,01,10,51,12.10
2013,04,01,10,52,12.10
2013,04,01,10,53,12.20
2013,04,01,10,54,12.30
2013,04,01,10,55,12.30
2013,04,01,10,56,12.40
2013,04,01,10,57,12.40
2013,04,01,10,58,12.30
2013,04,01,10,59,12.30
2013,04,01,11,00,12.30
2013,04,01,11,01,12.40
2013,04,01,11,02,12.40
2013,04,01,11,03,12.50
2013,04,01,11,04,12.50
2013,04,01,11,05,12.60
2013,04,01,11,06,12.70
2013,04,01,11,07,12.70
2013,04,01,11,08,12.70
2013,04,01,11,09,12.70
2013,04,01,11,10,12.60
2013,04,01,11,11,12.50
2013,04,01,11,12,12.60
2013,04,01,11,13,12.60
2013,04,01,11,14,12.70
2013,04,01,11,15,12.70
2013,04,01,11,16,12.80
2013,04,01,11,17,12.80
2013,04,01,11,18,12.90
2013,04,01,11,19,12.80
2013,04,01,11,20,12.80
2013,04,01,11,21,12.70
2013,04,01,11,22,12.80
2013,04,01,11,23,12.90
2013,04,01,11,24,13.00
2013,04,01,11,25,13.10
2013,04,01,11,26,13.10
2013,04,01,11,27,13.20
2013,04,01,11,28,13.20
2013,04,01,11,29,13.30
2013,04,01,11,30,13.30
2013,04,01,11,31,13.30
2013,04,01,11,32,13.40
2013,04,01,11,33,13.40
2013,04,01,11,34,13.50
2013,04,01,11,35,13.50
2013,04,01,11,36,13.50
2013,04,01,11,37,13.40
2013,04,01,11,38,13.40
2013,04,01,11,39,13.30
2013,04,01,11,40,13.30
2013,04,01,11,41,13.30
2013,04,01,11,42,13.30
2013,04,01,11,43,13.40
2013,04,01,11,44,13.40
2013,04,01,11,45,13.50
2013,04,01,11,46,13.50
2013,04,01,11,47,13.40
2013,04,01,11,48,13.30
2013,04,01,11,49,13.30
2013,04,01,11,50,13.30
2013,04,01,11,51,13.40
2013,04,01,11,52,13.40
2013,04,01,11,53,13.20
2013,04,01,11,54,13.20
2013,04,01,11,55,13.30
2013,04,01,11,56,13.30
2013,04,01,11,57,13.30
2013,04,01,11,58,13.10
2013,04,01,11,59,13.20
2013,04,01,12,00,13.30
2013,04,01,12,01,13.20
2013,04,01,12,02,13.10
2013,04,01,12,03,13.00
2013,04,01,12,04,13.00
2013,04,01,12,05,13.00
2013,04,01,12,06,13.10
2013,04,01,12,07,13.10
2013,04,01,12,08,13.10
2013,04,01,12,09,13.10
2013,04,01,12,10,13.10
2013,04,01,12,11,13.00
2013,04,01,12,12,12.90
2013,04,01,12,13,12.70
2013,04,01,12,14,12.70
2013,04,01,12,15,12.70
2013,04,01,12,16,12.80
2013,04,01,12,17,12.80
2013,04,01,12,18,12.90
2013,04,01,12,19,12.90
2013,04,01,12,20,12.90
2013,04,01,12,21,13.00
2013,04,01,12,22,13.00
2013,04,01,12,23,13.10
2013,04,01,12,24,13.20
2013,04,01,12,25,13.30
2013,04,01,12,26,13.30
2013,04,01,12,27,13.40
2013,04,01,12,28,13.50
2013,04,01,12,29,13.50
2013,04,01,12,30,13.50
2013,04,01,12,31,13.60
2013,04,01,12,32,13.50
2013,04,01,12,33,13.50
2013,04,01,12,34,13.60
2013,04,01,12,35,13.60
2013,04,01,12,36,13.50
2013,04,01,12,37,13.60
2013,04,01,12,38,13.60
2013,04,01,12,39,13.70
2013,04,01,12,40,13.60
2013,04,01,12,41,13.70
2013,04,01,12,42,13.70
2013,04,01,12,43,13.70
2013,04,01,12,44,13.70
2013,04,01,12,45,13.70
2013,04,01,12,46,13.90
2013,04,01,12,47,13.90
2013,04,01,12,48,13.90
2013,04,01,12,49,13.80
2013,04,01,12,50,13.70
2013,04,01,12,51,13.50
2013,04,01,12,52,13.60
2013,04,01,12,53,13.70
2013,04,01,12,54,13.80
2013,04,01,12,55,13.90
2013,04,01,12,56,13.90
2013,04,01,12,57,13.90
2013,04,01,12,58,13.80
2013,04,01,12,59,13.80
2013,04,01,13,00,13.70
2013,04,01,13,01,13.70
2013,04,01,13,02,13.60
2013,04,01,13,03,13.70
2013,04,01,13,04,13.70
2013,04,01,13,05,13.70
2013,04,01,13,06,13.60
2013,04,01,13,07,13.40
2013,04,01,13,08,13.30
2013,04,01,13,09,13.20
2013,04,01,13,10,13.10
2013,04,01,13,11,13.20
2013,04,01,13,12,13.30
2013,04,01,13,13,13.30
2013,04,01,13,14,13.30
2013,04,01,13,15,13.20
2013,04,01,13,16,13.20
2013,04,01,13,17,13.30
2013,04,01,13,18,13.40
2013,04,01,13,19,13.50
2013,04,01,13,20,13.60
2013,04,01,13,21,13.80
2013,04,01,13,22,14.00
2013,04,01,13,23,14.00
2013,04,01,13,24,14.10
2013,04,01,13,25,14.20
2013,04,01,13,26,14.20
2013,04,01,13,27,14.20
2013,04,01,13,28,14.20
2013,04,01,13,29,14.10
2013,04,01,13,30,14.10
2013,04,01,13,31,14.20
2013,04,01,13,32,14.20
2013,04,01,13,33,14.20
2013,04,01,13,34,14.10
2013,04,01,13,35,13.90
2013,04,01,13,36,13.90
2013,04,01,13,37,14.00
2013,04,01,13,38,14.00
2013,04,01,13,39,13.90
2013,04,01,13,40,14.00
2013,04,01,13,41,14.10
2013,04,01,13,42,14.10
2013,04,01,13,43,14.20
2013,04,01,13,44,14.20
2013,04,01,13,45,14.00
2013,04,01,13,46,14.00
2013,04,01,13,47,14.10
2013,04,01,13,48,14.40
2013,04,01,13,49,14.50
2013,04,01,13,50,14.70
2013,04,01,13,51,14.90
2013,04,01,13,52,15.00
2013,04,01,13,53,15.10
2013,04,01,13,54,15.10
2013,04,01,13,55,15.20
2013,04,01,13,56,15.10
2013,04,01,13,57,14.90
2013,04,01,13,58,14.90
2013,04,01,13,59,14.70
2013,04,01,14,00,14.60
2013,04,01,14,01,14.50
2013,04,01,14,02,14.40
2013,04,01,14,03,14.40
2013,04,01,14,04,14.20
2013,04,01,14,05,13.90
2013,04,01,14,06,13.80
2013,04,01,14,07,13.70
2013,04,01,14,08,13.70
2013,04,01,14,09,13.70
2013,04,01,14,10,13.70
2013,04,01,14,11,13.80
2013,04,01,14,12,13.70
2013,04,01,14,13,13.70
2013,04,01,14,14,13.80
2013,04,01,14,15,13.90
2013,04,01,14,16,13.90
2013,04,01,14,17,14.00
2013,04,01,14,18,13.90
2013,04,01,14,19,13.90
2013,04,01,14,20,13.90
2013,04,01,14,21,13.90
2013,04,01,14,22,13.70
2013,04,01,14,23,13.70
2013,04,01,14,24,13.50
2013,04,01,14,25,13.30
2013,04,01,14,26,13.30
2013,04,01,14,27,13.20
2013,04,01,14,28,13.00
2013,04,01,14,29,13.00
2013,04,01,14,30,13.00
2013,04,01,14,31,13.00
2013,04,01,14,32,12.80
2013,04,01,14,33,12.60
2013,04,01,14,34,12.60
2013,04,01,14,35,12.60
2013,04,01,14,36,12.70
2013,04,01,14,37,12.70
2013,04,01,14,38,12.70
2013,04,01,14,39,12.60
2013,04,01,14,40,12.60
2013,04,01,14,41,12.50
2013,04,01,14,42,12.50
2013,04,01,14,43,12.40
2013,04,01,14,44,12.30
2013,04,01,14,45,12.20
2013,04,01,14,46,12.00
2013,04,01,14,47,11.90
2013,04,01,14,48,12.00
2013,04,01,14,49,12.00
2013,04,01,14,50,12.10
2013,04,01,14,51,12.10
2013,04,01,14,52,12.00
2013,04,01,14,53,11.90
2013,04,01,14,54,11.90
2013,04,01,14,55,12.00
2013,04,01,14,56,12.00
2013,04,01,14,57,11.80
2013,04,01,14,58,11.70
2013,04,01,14,59,11.60
2013,04,01,15,00,11.50
2013,04,01,15,01,11.60
2013,04,01,15,02,11.60
2013,04,01,15,03,11.50
2013,04,01,15,04,11.40
2013,04,01,15,05,11.50
2013,04,01,15,06,11.40
2013,04,01,15,07,11.50
2013,04,01,15,08,11.50
2013,04,01,15,09,11.40
2013,04,01,15,10,11.40
2013,04,01,15,11,11.40
2013,04,01,15,12,11.20
2013,04,01,15,13,11.20
2013,04,01,15,14,11.20
2013,04,01,15,15,11.10
2013,04,01,15,16,11.10
2013,04,01,15,17,11.10
2013,04,01,15,18,11.10
2013,04,01,15,19,11.20
2013,04,01,15,20,11.30
2013,04,01,15,21,11.40
2013,04,01,15,22,11.30
2013,04,01,15,23,11.30
2013,04,01,15,24,11.10
2013,04,01,15,25,11.00
2013,04,01,15,26,11.00
2013,04,01,15,27,11.10
2013,04,01,15,28,11.10
2013,04,01,15,29,11.10
2013,04,01,15,30,11.10
2013,04,01,15,31,11.10
2013,04,01,15,32,10.90
2013,04,01,15,33,10.90
2013,04,01,15,34,11.00
2013,04,01,15,35,11.10
2013,04,01,15,36,11.10
2013,04,01,15,37,11.20
2013,04,01,15,38,11.30
2013,04,01,15,39,11.30
2013,04,01,15,40,11.40
2013,04,01,15,41,11.40
2013,04,01,15,42,11.40
2013,04,01,15,43,11.60
2013,04,01,15,44,11.70
2013,04,01,15,45,11.70
2013,04,01,15,46,11.60
2013,04,01,15,47,11.60
2013,04,01,15,48,11.60
2013,04,01,15,49,11.70
2013,04,01,15,50,11.80
2013,04,01,15,51,11.80
2013,04,01,15,52,11.80
2013,04,01,15,53,11.90
2013,04,01,15,54,11.90
2013,04,01,15,55,11.80
2013,04,01,15,56,11.90
2013,04,01,15,57,11.90
2013,04,01,15,58,11.90
2013,04,01,15,59,11.90
2013,04,01,16,00,11.90
2013,04,01,16,01,12.00
2013,04,01,16,02,12.10
2013,04,01,16,03,12.20
2013,04,01,16,04,12.20
2013,04,01,16,05,12.10
2013,04,01,16,06,12.10
2013,04,01,16,07,12.00
2013,04,01,16,08,12.00
2013,04,01,16,09,12.10
2013,04,01,16,10,12.20
2013,04,01,16,11,12.20
2013,04,01,16,12,12.10
2013,04,01,16,13,12.10
2013,04,01,16,14,12.10
2013,04,01,16,15,12.10
2013,04,01,16,16,12.20
2013,04,01,16,17,12.20
2013,04,01,16,18,12.20
2013,04,01,16,19,12.30
2013,04,01,16,20,12.30
2013,04,01,16,21,12.30
2013,04,01,16,22,12.40
2013,04,01,16,23,12.50
2013,04,01,16,24,12.50
2013,04,01,16,25,12.50
2013,04,01,16,26,12.50
2013,04,01,16,27,12.50
2013,04,01,16,28,12.60
2013,04,01,16,29,12.70
2013,04,01,16,30,12.70
2013,04,01,16,31,12.80
2013,04,01,16,32,12.80
2013,04,01,16,33,12.90
2013,04,01,16,34,13.00
2013,04,01,16,35,13.10
2013,04,01,16,36,13.10
2013,04,01,16,37,13.10
2013,04,01,16,38,13.20
2013,04,01,16,39,13.20
2013,04,01,16,40,13.30
2013,04,01,16,41,13.40
2013,04,01,16,42,13.50
2013,04,01,16,43,13.50
2013,04,01,16,44,13.50
2013,04,01,16,45,13.70
2013,04,01,16,46,13.70
2013,04,01,16,47,13.80
2013,04,01,16,48,13.90
2013,04,01,16,49,14.00
2013,04,01,16,50,14.10
2013,04,01,16,51,14.20
2013,04,01,16,52,14.30
2013,04,01,16,53,14.50
2013,04,01,16,54,14.70
2013,04,01,16,55,14.80
2013,04,01,16,56,15.00
2013,04,01,16,57,15.10
2013,04,01,16,58,15.20
2013,04,01,16,59,15.30
2013,04,01,17,00,15.40
2013,04,01,17,01,15.50
2013,04,01,17,02,15.50
2013,04,01,17,03,15.40
2013,04,01,17,04,15.40
2013,04,01,17,05,15.40
2013,04,01,17,06,15.40
2013,04,01,17,07,15.50
2013,04,01,17,08,15.40
2013,04,01,17,09,15.40
2013,04,01,17,10,15.50
2013,04,01,17,11,15.50
2013,04,01,17,12,15.40
2013,04,01,17,13,15.50
2013,04,01,17,14,15.50
2013,04,01,17,15,15.50
2013,04,01,17,16,15.50
2013,04,01,17,17,15.40
2013,04,01,17,18,15.30
2013,04,01,17,19,15.30
2013,04,01,17,20,15.30
2013,04,01,17,21,15.40
2013,04,01,17,22,15.40
2013,04,01,17,23,15.40
2013,04,01,17,24,15.50
2013,04,01,17,25,15.40
2013,04,01,17,26,15.30
2013,04,01,17,27,15.30
2013,04,01,17,28,15.30
2013,04,01,17,29,15.30
2013,04,01,17,30,15.40
2013,04,01,17,31,15.50
2013,04,01,17,32,15.60
2013,04,01,17,33,15.70
2013,04,01,17,34,15.80
2013,04,01,17,35,15.80
2013,04,01,17,36,15.80
2013,04,01,17,37,15.80
2013,04,01,17,38,15.80
2013,04,01,17,39,15.80
2013,04,01,17,40,15.80
2013,04,01,17,41,15.70
2013,04,01,17,42,15.60
2013,04,01,17,43,15.60
2013,04,01,17,44,15.60